Tracking 17154 objects as of 31-July-2015
HD Live streaming from Space Station

TDRS 3

Track TDRS 3 now!
TDRS 3 is classified as:


NORAD ID: 19548
Int'l Code: 1988-091B
Perigee: 35,650.6 km
Apogee: 35,940.2 km
Inclination: 14.7 °
Period: 1,436.2 minutes
Semi major axis: 42166 km
RCS: 38.9601 m2 (large)
Launch date: September 29, 1988
Source: United States (US)

Backup; still partially operational.
Your satellite tracking list
Your tracking list is empty





NASA's NSSDC Master Catalog

Two Line Element Set (TLE):
1 19548U 88091B   15212.38441597 -.00000307  00000-0  00000+0 0  9995
2 19548 014.6565 015.5241 0034346 304.8220 064.3846 01.00265970 85524

Source of the keplerian elements: AFSPC

N2YO: 284